Find Kosmos-1897

NORAD ID: 18575 Int'l Des: 1987-096 Owner: UNKS Country: SU operational
MEOCIRCULAR

Aktuelle Ansicht

3D-Globus wird geladen...

About Kosmos-1897

Kosmos-1897 (NORAD 18575) is a satellite launched Nov 26, 1987 by UNKS of SU. It operates in MEO, CIRCULAR orbit with a mass of 2400.00 kg.

Nächste Überflüge

Passes for default location (London). Set your location on the main map for personalized predictions.

Höhenverlauf

Loading altitude history...

Zweizeiliger Elementsatz

1 18575U 87096A 26194.86441558 -.00000263 00000-0 00000+0 0 9990
2 18575 10.9898 326.7425 0007737 146.8845 221.7007 1.00304735141460
Epoch: 13. Juli 2026 • Age: 20 hours

Aktueller Status

Höhe 35809.1 km
Apogäum / Perigäum N/A
Geschwindigkeit 3.07 km/s
Subsatellitenpunkt -9.02°S, 93.01°E
Startdatum 26. Nov. 1987
Alter 38.6 years
Typ other

Technische Details

Klassifizierung Payload
Masse 2400.00 kg
Trockenmasse 2200.00 kg
Gesamtmasse 2400.00 kg
Länge 6.60 m
Durchmesser 4.10 m
Spannweite 16.00 m
Form Cyl + 2 Pan + 2 Dish
Hersteller NPOPM
Bus-Typ KAUR-4 Al'tair
Phasenstatus In Orbit
Besitzer/Staat UNKS/SU

Most Searched